Location: Warszawa
(52.2500°N, 21.0000°E)
Time: 19:51:00
(UTC+01:00)

Vanguard 3 - Visible Passes

Search period start: 07 February 2023 00:00
Search period end: 17 February 2023 00:00
Orbit: 510 x 3252 km, 33.3° (Epoch: 07 February)

Date Brightness Start Highest point End Pass type
(mag) Time Alt. Az. Time Alt. Az. Time Alt. Az.
07 Feb 10.0 17:32:57 10° SSW 17:38:53 21° SSE 17:47:18 10° ESE visible
07 Feb 10.0 19:41:42 10° SW 19:50:10 30° S 19:53:26 28° SSE visible
07 Feb 10.5 21:52:53 10° WSW 21:57:53 21° SW 21:57:53 21° SW visible
08 Feb 9.9 18:27:43 10° SW 18:34:38 26° SSE 18:42:16 15° SE visible
08 Feb 10.1 20:37:43 10° WSW 20:46:32 28° S 20:46:43 28° S visible
08 Feb 11.0 22:50:45 10° WSW 22:51:09 11° WSW 22:51:09 11° WSW visible
09 Feb 9.9 17:14:27 10° SSW 17:19:38 20° SSE 17:26:53 10° ESE visible
09 Feb 9.9 19:23:12 10° SW 19:30:44 27° S 19:35:34 22° SSE visible
09 Feb 10.5 21:34:28 10° WSW 21:40:01 21° SW 21:40:01 21° SW visible
10 Feb 9.8 18:09:16 10° SW 18:15:22 24° SSE 18:24:21 10° ESE visible
10 Feb 10.2 20:19:17 10° WSW 20:27:02 24° S 20:28:53 24° S visible
10 Feb 10.9 22:32:56 10° WSW 22:33:20 11° SW 22:33:20 11° SW visible
11 Feb 10.0 19:04:48 10° SW 19:11:24 24° S 19:17:48 16° SE visible
11 Feb 10.5 21:16:18 10° WSW 21:22:15 18° SSW 21:22:15 18° SSW visible
12 Feb 9.8 17:50:54 10° SW 17:56:10 21° S 18:03:43 10° SE visible
12 Feb 10.2 20:01:01 10° SW 20:07:37 21° S 20:11:11 18° S visible
13 Feb 10.0 18:46:31 10° SW 18:52:09 21° S 19:00:06 10° SE visible
13 Feb 10.6 20:58:31 10° SW 21:03:53 15° SSW 21:04:38 15° SSW visible
14 Feb 9.8 17:32:37 10° SW 17:37:02 18° S 17:43:05 10° SE visible
14 Feb 10.3 19:42:59 10° SW 19:48:17 17° SSW 19:53:41 12° SSE visible
15 Feb 10.0 18:28:24 10° SW 18:32:57 17° S 18:39:03 10° SSE visible
15 Feb 10.7 20:41:52 10° SW 20:44:28 11° SSW 20:47:15 10° S visible
16 Feb 10.4 19:25:24 10° SW 19:29:01 13° SSW 19:33:23 10° S visible
